GEC2510 EDDN-EPWR

Flight info

Callsign GEC2510
Flight time 1h 0m
Altitude 29000
Route ERETO1G ERETO Z715 KULOK L984 OKG DCT GOLOP DCT ARTUP DCT LAGAR T871 DINOV
Aircraft MD11/H-SDE1E2E3FGHIJ2J3J4J5M1RWXY/LB1D1

Departure

Time 2026-05-06 19:01
Airport Nuremberg Airport (EDDN)

Arrival

Time 2026-05-06 20:01
Airport Copernicus Wrocław Airport (EPWR)
Time Latitude Longitude Altitude Speed Heading
2026-05-06 18:41 49.49486 11.08169 1034 ft 0 kts 188°
2026-05-06 18:49 49.49508 11.08174 1033 ft 2 kts 188°
2026-05-06 18:49 49.49531 11.08176 1035 ft 4 kts 158°
2026-05-06 18:49 49.49546 11.08161 1035 ft 4 kts 109°
2026-05-06 18:50 49.49552 11.08122 1035 ft 4 kts 98°
2026-05-06 18:50 49.49553 11.08115 1035 ft 0 kts 99°
2026-05-06 18:52 49.49552 11.08122 1035 ft 4 kts 99°
2026-05-06 18:52 49.49541 11.08219 1033 ft 12 kts 99°
2026-05-06 18:52 49.49541 11.08326 1037 ft 3 kts 66°
2026-05-06 18:53 49.49552 11.08339 1038 ft 4 kts 35°
2026-05-06 18:53 49.49586 11.08371 1040 ft 5 kts 40°
2026-05-06 18:53 49.49607 11.08473 1042 ft 18 kts 90°
2026-05-06 18:53 49.49583 11.08756 1044 ft 35 kts 98°
2026-05-06 18:54 49.49545 11.09161 1049 ft 26 kts 98°
2026-05-06 18:54 49.49535 11.09256 1051 ft 5 kts 98°
2026-05-06 18:54 49.49531 11.09321 1052 ft 7 kts 89°
2026-05-06 18:54 49.49547 11.09376 1055 ft 6 kts 53°
2026-05-06 18:55 49.49578 11.09449 1056 ft 12 kts 57°
2026-05-06 18:55 49.49591 11.09479 1056 ft 0 kts 53°
2026-05-06 18:59 49.49602 11.09502 1057 ft 7 kts 53°
2026-05-06 18:59 49.49630 11.09542 1059 ft 4 kts 26°
2026-05-06 18:59 49.49673 11.09535 1059 ft 9 kts 332°
2026-05-06 18:59 49.49706 11.09436 1058 ft 13 kts 283°
2026-05-06 19:00 49.49713 11.09368 1057 ft 0 kts 278°
2026-05-06 19:00 49.49716 11.09335 1056 ft 20 kts 278°
2026-05-06 19:00 49.49780 11.08654 1046 ft 107 kts 278°
2026-05-06 19:00 49.49949 11.07154 1094 ft 167 kts 279°
2026-05-06 19:01 49.50133 11.05327 1843 ft 178 kts 279°
2026-05-06 19:01 49.50352 11.03463 2873 ft 175 kts 281°
2026-05-06 19:01 49.50616 11.01635 3873 ft 175 kts 283°
2026-05-06 19:01 49.50852 10.99797 4721 ft 185 kts 277°
2026-05-06 19:02 49.51052 10.97581 4874 ft 232 kts 281°
2026-05-06 19:02 49.51698 10.95155 5436 ft 254 kts 304°
2026-05-06 19:02 49.53008 10.93286 6440 ft 264 kts 329°
2026-05-06 19:02 49.54791 10.92483 7363 ft 274 kts 352°
2026-05-06 19:03 49.56723 10.92388 8279 ft 281 kts 359°
2026-05-06 19:03 49.58683 10.92462 9208 ft 287 kts
2026-05-06 19:03 49.60701 10.92563 10101 ft 293 kts
2026-05-06 19:03 49.62758 10.92656 10848 ft 304 kts 360°
2026-05-06 19:04 49.64992 10.92740 10991 ft 335 kts 360°
2026-05-06 19:04 49.67398 10.92836 11299 ft 360 kts
2026-05-06 19:04 49.69923 10.93489 11888 ft 374 kts 17°
2026-05-06 19:04 49.72267 10.95302 12724 ft 381 kts 34°
2026-05-06 19:05 49.74371 10.97828 13536 ft 387 kts 40°
2026-05-06 19:05 49.76396 11.00620 14274 ft 392 kts 42°
2026-05-06 19:05 49.78419 11.03489 14994 ft 397 kts 42°
2026-05-06 19:05 49.80481 11.06383 15721 ft 402 kts 42°
2026-05-06 19:06 49.82576 11.09292 16400 ft 407 kts 43°
2026-05-06 19:06 49.84418 11.12624 17063 ft 410 kts 57°
2026-05-06 19:06 49.85853 11.16468 17712 ft 414 kts 64°
2026-05-06 19:06 49.87103 11.20515 18339 ft 418 kts 67°
2026-05-06 19:07 49.88302 11.24646 18921 ft 422 kts 67°
2026-05-06 19:07 49.89100 11.27409 19292 ft 425 kts 67°
2026-05-06 19:07 49.90731 11.33028 20016 ft 430 kts 68°
2026-05-06 19:07 49.91834 11.37361 20566 ft 433 kts 71°
2026-05-06 19:08 49.92868 11.41775 21143 ft 437 kts 72°
2026-05-06 19:08 49.93892 11.46236 21663 ft 441 kts 71°
2026-05-06 19:08 49.94934 11.50738 22240 ft 445 kts 71°
2026-05-06 19:08 49.95998 11.55283 22691 ft 450 kts 71°
2026-05-06 19:09 49.97066 11.59800 23098 ft 452 kts 71°
2026-05-06 19:09 49.98157 11.64389 23490 ft 455 kts 71°
2026-05-06 19:09 49.99259 11.69015 23731 ft 458 kts 71°
2026-05-06 19:09 50.00366 11.73666 23787 ft 459 kts 71°
2026-05-06 19:10 50.01471 11.78320 23794 ft 459 kts 71°
2026-05-06 19:10 50.02573 11.82965 23799 ft 460 kts 71°
2026-05-06 19:10 50.03679 11.87642 24383 ft 461 kts 71°
2026-05-06 19:10 50.04787 11.92341 24931 ft 464 kts 71°
2026-05-06 19:11 50.05904 11.97090 25349 ft 470 kts 72°
2026-05-06 19:11 50.07032 12.01897 25832 ft 475 kts 72°
2026-05-06 19:11 50.08169 12.06753 26333 ft 479 kts 72°
2026-05-06 19:11 50.09315 12.11657 26822 ft 484 kts 72°
2026-05-06 19:12 50.10455 12.16548 27301 ft 488 kts 72°
2026-05-06 19:12 50.11632 12.21607 27716 ft 492 kts 72°
2026-05-06 19:12 50.12787 12.26582 28113 ft 495 kts 72°
2026-05-06 19:12 50.13960 12.31650 28534 ft 499 kts 73°
2026-05-06 19:13 50.15144 12.36772 28743 ft 502 kts 73°
2026-05-06 19:13 50.17523 12.47109 28761 ft 508 kts 73°
2026-05-06 19:14 50.19881 12.57543 28785 ft 510 kts 73°
2026-05-06 19:14 50.22225 12.68003 28790 ft 510 kts 73°
2026-05-06 19:15 50.24589 12.78477 28795 ft 511 kts 73°
2026-05-06 19:15 50.26952 12.88946 28809 ft 511 kts 73°
2026-05-06 19:16 50.29305 12.99416 28764 ft 511 kts 73°
2026-05-06 19:16 50.31651 13.09914 28792 ft 511 kts 73°
2026-05-06 19:17 50.33986 13.20417 28764 ft 511 kts 73°
2026-05-06 19:17 50.36296 13.30863 28762 ft 511 kts 73°
2026-05-06 19:18 50.38614 13.41394 28762 ft 511 kts 73°
2026-05-06 19:18 50.40919 13.51922 28761 ft 511 kts 73°
2026-05-06 19:19 50.43221 13.62493 28761 ft 511 kts 73°
2026-05-06 19:19 50.45121 13.71257 28764 ft 511 kts 74°
2026-05-06 19:20 50.47366 13.81844 28761 ft 511 kts 74°
2026-05-06 19:20 50.49599 13.92420 28761 ft 511 kts 74°
2026-05-06 19:21 50.51844 14.02976 28768 ft 508 kts 74°
2026-05-06 19:21 50.54086 14.13521 28759 ft 508 kts 74°
2026-05-06 19:22 50.56317 14.24072 28766 ft 508 kts 74°
2026-05-06 19:22 50.58536 14.34624 28763 ft 508 kts 74°
2026-05-06 19:23 50.60748 14.45205 28764 ft 508 kts 74°
2026-05-06 19:23 50.62949 14.55783 28776 ft 508 kts 74°
2026-05-06 19:24 50.65141 14.66376 28778 ft 508 kts 74°
2026-05-06 19:24 50.67303 14.76881 28774 ft 508 kts 75°
2026-05-06 19:25 50.69469 14.87459 28777 ft 501 kts 75°
2026-05-06 19:25 50.70534 14.92672 28648 ft 498 kts 75°
2026-05-06 19:25 50.71582 14.97832 27949 ft 492 kts 75°
2026-05-06 19:25 50.72611 15.03007 26715 ft 494 kts 75°
2026-05-06 19:26 50.73626 15.08153 25826 ft 486 kts 75°
2026-05-06 19:26 50.74625 15.13198 24988 ft 478 kts 75°
2026-05-06 19:26 50.75615 15.18169 24080 ft 473 kts 76°
2026-05-06 19:26 50.76602 15.23101 23208 ft 467 kts 75°
2026-05-06 19:27 50.77585 15.27956 22285 ft 460 kts 75°
2026-05-06 19:27 50.78542 15.32747 21394 ft 454 kts 76°
2026-05-06 19:27 50.79435 15.37487 20521 ft 446 kts 80°
2026-05-06 19:27 50.79988 15.42250 19729 ft 436 kts 86°
2026-05-06 19:28 50.80316 15.46983 18902 ft 430 kts 88°
2026-05-06 19:28 50.80550 15.51610 18075 ft 426 kts 89°
2026-05-06 19:28 50.80764 15.56237 17483 ft 415 kts 89°
2026-05-06 19:28 50.80983 15.60833 17210 ft 420 kts 89°
2026-05-06 19:29 50.81213 15.65420 16951 ft 418 kts 88°
2026-05-06 19:29 50.81453 15.69992 16815 ft 417 kts 88°
2026-05-06 19:29 50.81698 15.74558 16751 ft 417 kts 88°
2026-05-06 19:29 50.81946 15.79122 16677 ft 416 kts 88°
2026-05-06 19:30 50.82194 15.83690 16615 ft 416 kts 88°
2026-05-06 19:30 50.82439 15.88215 16293 ft 410 kts 88°
2026-05-06 19:30 50.82681 15.92718 15412 ft 409 kts 88°
2026-05-06 19:30 50.82919 15.97180 14642 ft 405 kts 88°
2026-05-06 19:31 50.83152 16.01589 13905 ft 400 kts 88°
2026-05-06 19:31 50.83381 16.05943 13158 ft 395 kts 88°
2026-05-06 19:31 50.83825 16.14496 11645 ft 386 kts 88°
2026-05-06 19:32 50.84041 16.18705 11032 ft 378 kts 88°
2026-05-06 19:32 50.84252 16.22872 10667 ft 380 kts 88°
2026-05-06 19:32 50.84462 16.27031 10304 ft 378 kts 88°
2026-05-06 19:32 50.84668 16.31144 9945 ft 373 kts 88°
2026-05-06 19:33 50.84872 16.35245 9829 ft 374 kts 88°
2026-05-06 19:33 50.85075 16.39353 9799 ft 374 kts 88°
2026-05-06 19:33 50.85274 16.43415 9794 ft 374 kts 88°
2026-05-06 19:33 50.85474 16.47520 9792 ft 373 kts 88°
2026-05-06 19:34 50.85669 16.51497 9790 ft 351 kts 89°
2026-05-06 19:34 50.85854 16.55235 9788 ft 331 kts 89°
2026-05-06 19:34 50.86026 16.58763 9786 ft 311 kts 89°
2026-05-06 19:34 50.86187 16.62111 9789 ft 301 kts 89°
2026-05-06 19:35 50.86341 16.65419 9788 ft 299 kts 90°
2026-05-06 19:35 50.86491 16.68708 9792 ft 299 kts 91°
2026-05-06 19:35 50.86624 16.71988 9784 ft 298 kts 91°
2026-05-06 19:35 50.86753 16.75245 9694 ft 295 kts 91°
2026-05-06 19:36 50.86885 16.78504 9193 ft 296 kts 91°
2026-05-06 19:36 50.87022 16.81752 8776 ft 295 kts 91°
2026-05-06 19:36 50.87162 16.84975 8379 ft 292 kts 91°
2026-05-06 19:36 50.87302 16.88175 7983 ft 290 kts 91°
2026-05-06 19:37 50.87443 16.91362 7575 ft 289 kts 91°
2026-05-06 19:37 50.87580 16.94484 7225 ft 286 kts 91°
2026-05-06 19:37 50.87718 16.97612 6855 ft 284 kts 91°
2026-05-06 19:37 50.87855 17.00735 6491 ft 284 kts 91°
2026-05-06 19:38 50.87990 17.03840 6141 ft 281 kts 90°
2026-05-06 19:38 50.88125 17.06877 6010 ft 269 kts 91°
2026-05-06 19:38 50.88253 17.09740 5983 ft 253 kts 91°
2026-05-06 19:38 50.88373 17.12517 6011 ft 263 kts 91°
2026-05-06 19:39 50.88490 17.15476 5531 ft 276 kts 90°
2026-05-06 19:39 50.88615 17.18501 5139 ft 274 kts 90°
2026-05-06 19:39 50.88800 17.21486 4761 ft 272 kts 81°
2026-05-06 19:39 50.89478 17.24271 4360 ft 273 kts 58°
2026-05-06 19:40 50.90841 17.26331 4069 ft 271 kts 33°
2026-05-06 19:40 50.92445 17.27731 4000 ft 256 kts 27°
2026-05-06 19:40 50.93992 17.28912 3992 ft 239 kts 24°
2026-05-06 19:40 50.95589 17.29547 3984 ft 236 kts
2026-05-06 19:41 50.97157 17.28928 3984 ft 233 kts 326°
2026-05-06 19:41 50.98237 17.27093 4009 ft 228 kts 297°
2026-05-06 19:41 50.99013 17.24875 4007 ft 229 kts 295°
2026-05-06 19:41 50.99729 17.22772 4008 ft 211 kts 294°
2026-05-06 19:42 51.00382 17.20700 3998 ft 205 kts 292°
2026-05-06 19:42 51.01005 17.18671 4001 ft 204 kts 292°
2026-05-06 19:42 51.01624 17.16656 4006 ft 203 kts 292°
2026-05-06 19:42 51.02245 17.14629 3774 ft 204 kts 293°
2026-05-06 19:43 51.02860 17.12657 3543 ft 201 kts 294°
2026-05-06 19:43 51.03477 17.10654 3280 ft 201 kts 295°
2026-05-06 19:43 51.04091 17.08659 3012 ft 200 kts 295°
2026-05-06 19:43 51.04699 17.06680 2747 ft 199 kts 296°
2026-05-06 19:44 51.05308 17.04702 2485 ft 199 kts 297°
2026-05-06 19:44 51.05912 17.02737 2223 ft 198 kts 298°
2026-05-06 19:44 51.06490 17.00854 1919 ft 179 kts 299°
2026-05-06 19:44 51.07009 16.99159 1699 ft 167 kts 300°
2026-05-06 19:45 51.07518 16.97512 1524 ft 165 kts 299°
2026-05-06 19:45 51.08025 16.95876 1294 ft 163 kts 298°
2026-05-06 19:45 51.08511 16.94266 1069 ft 160 kts 297°
2026-05-06 19:45 51.09012 16.92689 849 ft 158 kts 297°
2026-05-06 19:46 51.09482 16.91128 653 ft 157 kts 296°
2026-05-06 19:46 51.09963 16.89554 561 ft 171 kts 297°
2026-05-06 19:46 51.10474 16.87849 1533 ft 161 kts 298°
2026-05-06 19:46 51.10976 16.86122 2229 ft 188 kts 296°
2026-05-06 19:47 51.11552 16.84198 2954 ft 203 kts 296°
2026-05-06 19:47 51.12226 16.82055 3292 ft 226 kts 296°
2026-05-06 19:47 51.12954 16.79795 3679 ft 232 kts 296°
2026-05-06 19:47 51.13705 16.77503 3955 ft 236 kts 296°
2026-05-06 19:48 51.14472 16.75199 3988 ft 235 kts 297°
2026-05-06 19:48 51.15244 16.72896 4002 ft 235 kts 296°
2026-05-06 19:48 51.16013 16.70600 4007 ft 235 kts 296°
2026-05-06 19:48 51.16863 16.68379 3991 ft 237 kts 311°
2026-05-06 19:49 51.18239 16.66960 4011 ft 250 kts 343°
2026-05-06 19:49 51.20044 16.66783 4025 ft 270 kts 11°
2026-05-06 19:49 51.21746 16.67955 4010 ft 273 kts 38°
2026-05-06 19:49 51.22952 16.70256 4008 ft 271 kts 65°
2026-05-06 19:50 51.23363 16.73145 4004 ft 268 kts 93°
2026-05-06 19:50 51.22956 16.76009 4015 ft 266 kts 113°
2026-05-06 19:50 51.22244 16.78742 4001 ft 267 kts 115°
2026-05-06 19:50 51.21498 16.81459 4002 ft 267 kts 115°
2026-05-06 19:51 51.20744 16.84172 4002 ft 267 kts 116°
2026-05-06 19:51 51.19990 16.86874 4001 ft 266 kts 115°
2026-05-06 19:51 51.19246 16.89578 4012 ft 266 kts 115°
2026-05-06 19:51 51.18514 16.92283 4013 ft 266 kts 116°
2026-05-06 19:52 51.17783 16.94993 4009 ft 266 kts 116°
2026-05-06 19:52 51.17047 16.97701 4010 ft 266 kts 115°
2026-05-06 19:52 51.16302 17.00399 4014 ft 266 kts 116°
2026-05-06 19:52 51.15563 17.03104 4011 ft 267 kts 116°
2026-05-06 19:53 51.14828 17.05812 4011 ft 267 kts 115°
2026-05-06 19:53 51.14094 17.08528 4009 ft 266 kts 116°
2026-05-06 19:53 51.13365 17.11224 3815 ft 265 kts 115°
2026-05-06 19:53 51.12626 17.13914 3420 ft 263 kts 116°
2026-05-06 19:54 51.11880 17.16553 3088 ft 259 kts 115°
2026-05-06 19:54 51.11147 17.19063 3008 ft 246 kts 115°
2026-05-06 19:54 51.10443 17.21445 3006 ft 228 kts 115°
2026-05-06 19:54 51.09795 17.23609 2977 ft 205 kts 118°
2026-05-06 19:55 51.08873 17.25217 2782 ft 196 kts 151°
2026-05-06 19:55 51.07572 17.25590 2689 ft 195 kts 190°
2026-05-06 19:55 51.06299 17.24816 2757 ft 199 kts 205°
2026-05-06 19:55 51.05056 17.23852 2710 ft 198 kts 206°
2026-05-06 19:56 51.03826 17.22863 2704 ft 199 kts 213°
2026-05-06 19:56 51.02952 17.21213 2668 ft 197 kts 250°
2026-05-06 19:56 51.02722 17.19064 2750 ft 200 kts 265°
2026-05-06 19:56 51.02618 17.16868 2706 ft 199 kts 265°
2026-05-06 19:57 51.02540 17.14674 2694 ft 200 kts 275°
2026-05-06 19:57 51.02950 17.12593 2719 ft 199 kts 295°
2026-05-06 19:57 51.03524 17.10583 2711 ft 200 kts 295°
2026-05-06 19:57 51.04120 17.08587 2707 ft 200 kts 296°
2026-05-06 19:58 51.04727 17.06602 2708 ft 200 kts 296°
2026-05-06 19:58 51.05341 17.04599 2466 ft 201 kts 297°
2026-05-06 19:58 51.05952 17.02608 2187 ft 197 kts 298°
2026-05-06 19:58 51.06557 17.00641 1946 ft 199 kts 299°
2026-05-06 19:59 51.07141 16.98735 1653 ft 182 kts 300°
2026-05-06 19:59 51.07666 16.97022 1429 ft 168 kts 300°
2026-05-06 19:59 51.08174 16.95388 1224 ft 164 kts 297°
2026-05-06 19:59 51.08671 16.93776 991 ft 160 kts 297°
2026-05-06 20:00 51.09157 16.92191 793 ft 158 kts 296°
2026-05-06 20:00 51.09627 16.90643 567 ft 154 kts 297°
2026-05-06 20:00 51.10097 16.89147 422 ft 140 kts 297°
2026-05-06 20:00 51.10431 16.88038 413 ft 82 kts 294°
2026-05-06 20:01 51.10601 16.87487 412 ft 31 kts 298°
2026-05-06 20:01 51.10677 16.87265 412 ft 11 kts 310°
2026-05-06 20:01 51.10681 16.87260 422 ft 0 kts 326°